sat.trackr.live / text

‹ back to catalog

YAOGAN-33 01

NORAD 47302 · 2020-103A

PAYLOAD ACTIVE UNKNOWN

§ Identity

Operator
Country
PRC
Launch date
2020-12-27
Launch site
JSC
Launch vehicle
Mass (kg)
RCS (m²)

External: N2YO · Heavens-Above · Gunter

§ Orbital elements

Epoch: 2026-05-25T04:23:32.672256Z

Period
98.71 min
Inclination
98.0448°
Eccentricity
0.0002655
Mean motion
14.58858628 rev/d
Perigee alt
695.0 km
Apogee alt
698.7 km
Semi-major
7,075.0 km
B*
7.9802e-5
RAAN
27.4949°
Arg perigee
182.2244°
Mean anomaly
177.8944°
Rev number
28,795

§ Raw data

YAOGAN-33 011 47302U 20103A   26145.18301704  .00000329  00000+0  79802-4 0  99972 47302  98.0448  27.4949 0002655 182.2244 177.8944 14.58858628287953

JSON: /api/v1/satellites/47302 · /tle

For live sub-satellite position, see the globe view (requires WebGL).

§ Visibility from observer

Set your observer location to see the next 7 days of passes ≥ 10°. The values pass through the URL so the page stays shareable.

No JS? Fill the form by hand. The geolocation button needs JavaScript.